OKEAN-O

Last updated on Wed Jul 02 2025 00:02:14 GMT+0000 (Coordinated Universal Time)

1 25860U 99039A 25182.15901381 .00000470 00000+0 69339-4 0 9991 2 25860 97.9825 239.0705 0001947 86.5898 273.5536 14.79823543397189
UTC large
Height (km)
Speed (km/s)
/
Latitude / Longitude
Inclination (degrees)
Orbital Period (minutes)
Azimuth
Elevation
Range (km)
Doppler Factor

Next 0 passes for location: London (51.5072 / 0.1276)

Sorry there are no passes over London.